{"data":{"norad_id":40137,"intl_designator":"2014-051B","name":"CHUANGXIN 1-04 (CX-1-04)","alt_names":[],"object_type":"PAYLOAD","status":"ACTIVE","operator":null,"country":"PRC","launch_date":"2014-09-04","launch_site_code":"JSC","launch_vehicle":null,"mission":null,"orbit_class":"UNKNOWN","rcs_meters":0.5749,"size_class":null,"mass_kg":null,"dimensions":null,"purposes":[],"wikipedia_slug":null,"has_3d_model":false,"image_url":null,"decayed_at":null,"tle_current":{"epoch":"2026-05-25T03:31:08.073408Z","epoch_age_seconds":72771,"freshness":"FRESH","line1":"1 40137U 14051B   26145.14662122 -.00000036  00000+0  35477-5 0  9998","line2":"2 40137  98.7060 146.9636 0021189 240.6338 119.2728 14.30404358611256","mean_motion":14.30404358,"eccentricity":0.0021189,"inclination_deg":98.706,"raan_deg":146.9636,"arg_perigee_deg":240.6338,"mean_anomaly_deg":119.2728,"bstar":3.5477e-6,"rev_number":61125,"period_min":100.67083422574,"perigee_km":775.19016946999,"apogee_km":805.56890885966,"semimajor_km":7168.5165391648,"source":"CELESTRAK","updated_at":"2026-05-25T13:37:55.474159Z"}}}